Tracking 22019 objects as of 2-Dec-2020
HD Live streaming from Space Station
objects crossing your sky now

RADCAL

Track RADCAL now!
10-day predictions
RADCAL is classified as:


NORAD ID: 22698
Int'l Code: 1993-041A
Perigee: 757.8 km
Apogee: 884.0 km
Inclination: 89.6 °
Period: 101.2 minutes
Semi major axis: 7191 km
RCS: 0.589 m2 (medium)
Launch date: June 25, 1993
Source: United States (US)
Launch site: AIR FORCE WESTERN TEST RANGE (AFWTR)

This spacecraft was used to help calibrate radar target cross section data.
aabbcc
Your satellite tracking list
Your tracking list is empty




NASA's NSSDC Master Catalog

Two Line Element Set (TLE):
1 22698U 93041A   20336.81103368  .00000069  00000-0  24132-4 0  9999
2 22698  89.5635 170.8210 0087735 323.9026  35.6262 14.23431618424309
Source of the keplerian elements: AFSPC